Location: Strohbehn Observatory
(42.4649°N, 93.8239°W)
Time: 06:20:32
(UTC-06:00)

SL-16 R/B - Visible Passes

Search period start: 29 January 2015 00:00
Search period end: 08 February 2015 00:00
Orbit: 842 x 846 km, 71.0° (Epoch: 27 January)

Date Brightness Start Highest point End Pass type
(mag) Time Alt. Az. Time Alt. Az. Time Alt. Az.
29 Jan 3.7 05:07:13 10° N 05:12:16 32° NE 05:17:22 10° ESE visible
29 Jan 2.7 06:51:14 10° NW 06:56:29 39° WSW 07:01:41 10° S visible
29 Jan 4.0 19:59:15 10° S 20:00:46 19° S 20:00:46 19° S visible
30 Jan 3.8 04:53:46 13° N 04:58:04 31° NE 05:03:07 10° ESE visible
30 Jan 2.7 06:37:01 10° NW 06:42:19 41° WSW 06:47:32 10° S visible
30 Jan 3.1 19:45:05 10° S 19:48:20 34° SSE 19:48:20 34° SSE visible
31 Jan 3.8 04:40:27 17° N 04:43:51 31° NE 04:48:51 10° ESE visible
31 Jan 2.6 06:22:47 10° NW 06:28:08 42° WSW 06:33:24 10° S visible
31 Jan 2.3 19:30:56 10° S 19:35:55 51° SE 19:35:55 51° SE visible
31 Jan 4.6 21:16:08 10° WSW 21:17:52 17° W 21:17:52 17° W visible
01 Feb 3.9 04:27:16 22° NNE 04:29:38 30° NE 04:34:36 10° ESE visible
01 Feb 2.5 06:09:11 13° NW 06:13:57 44° WSW 06:19:15 10° S visible
01 Feb 2.3 19:16:46 10° S 19:22:11 50° ESE 19:23:26 42° ENE visible
01 Feb 4.2 21:01:52 10° WSW 21:05:24 25° WNW 21:05:24 25° WNW visible
02 Feb 3.9 04:14:13 26° NNE 04:15:25 29° NE 04:20:20 10° ESE visible
02 Feb 2.5 05:56:09 20° NW 05:59:46 45° WSW 06:05:07 10° S visible
02 Feb 2.4 19:02:37 10° S 19:08:00 48° ESE 19:10:55 26° NE visible
02 Feb 3.9 20:47:35 10° WSW 20:52:25 27° NW 20:52:53 27° NW visible
03 Feb 3.9 04:01:20 28° NE 04:01:20 28° NE 04:06:05 10° ESE visible
03 Feb 2.4 05:43:16 31° NW 05:45:35 47° WSW 05:50:58 10° S visible
03 Feb 2.4 18:48:28 10° S 18:53:49 46° ESE 18:58:18 15° NE visible
03 Feb 3.9 20:33:19 10° WSW 20:38:12 28° NW 20:40:15 23° NNW visible
04 Feb 4.2 03:48:35 24° E 03:48:35 24° E 03:51:48 10° ESE visible
04 Feb 2.3 05:30:32 45° W 05:31:24 49° WSW 05:36:49 10° S visible
04 Feb 2.5 18:34:19 10° S 18:39:38 45° ESE 18:45:02 10° NE visible
04 Feb 3.9 20:19:03 10° WSW 20:23:59 29° NW 20:27:28 16° N visible
05 Feb 4.6 03:35:57 17° E 03:35:57 17° E 03:37:32 10° ESE visible
05 Feb 2.4 05:17:56 48° SW 05:17:56 48° SW 05:22:40 10° S visible
05 Feb 2.6 18:20:11 10° S 18:25:27 43° ESE 18:30:49 10° NE visible
05 Feb 3.9 20:04:48 10° WSW 20:09:46 30° NW 20:14:33 11° N visible
06 Feb 3.2 05:05:26 32° SSW 05:05:26 32° SSW 05:08:31 10° S visible
06 Feb 2.6 18:06:02 10° S 18:11:17 41° ESE 18:16:36 10° NE visible
06 Feb 3.9 19:50:32 10° WSW 19:55:33 31° NW 20:00:32 10° N visible
07 Feb 4.0 04:52:58 18° S 04:52:58 18° S 04:54:21 10° S visible
07 Feb 3.8 19:36:17 10° WSW 19:41:20 32° NW 19:46:22 10° N visible
